Regional Weather Roundup
Issued by NWS Little Rock, AR

Home | Current Version | Previous Version | Text Only | Print | Product List | Glossary Off
Versions: 1 2 3 4 5 6 7 8 9 10 11 12 13 14 15 16 17 18 19 20 21 22 23 24 25 26 27 28 29 30 31 32 33 34 35 36 37 38 39 40 41 42 43 44 45 46 47 48 49 50

068
ASUS44 KLZK 210005
RWRLZK

WEATHER ROUNDUP FOR ARKANSAS
NATIONAL WEATHER SERVICE LITTLE ROCK AR
700 PM CDT FRI OCT 20 2017

NOTE: "FAIR" INDICATES FEW OR NO CLOUDS BELOW 12,000 FEET WITH NO
SIGNIFICANT WEATHER AND/OR OBSTRUCTIONS TO VISIBILITY.

ARZ001-003-010-029-210100-
NORTHWEST ARKANSAS

CITY           SKY/WX    TMP DP  RH WIND       PRES   REMARKS
FAYETTEVILLE   CLEAR     67  60  78 SE14      29.99F
6HR MIN TEMP:  67; 6HR MAX TEMP:  73;

FORT SMITH     PTCLDY    70  62  76 E8        29.99F
6HR MIN TEMP:  70; 6HR MAX TEMP:  77;

HARRISON       MOCLDY    66  59  78 SE13      30.06R
6HR MIN TEMP:  66; 6HR MAX TEMP:  72; 6HR PCP: TRACE;

BENTONVILLE    CLEAR     67  58  72 S17G25    30.00F
6HR MIN TEMP:  67; 6HR MAX TEMP:  74;

ROGERS         CLEAR     66  58  75 SE9       30.00F
6HR MIN TEMP:  66; 6HR MAX TEMP:  73;

SILOAM SPGS    CLEAR     67  59  75 SE15      29.98F
6HR MIN TEMP:  67; 6HR MAX TEMP:  75;

HIGHFILL       CLEAR     67  59  75 S14       29.99F
6HR MIN TEMP:  67; 6HR MAX TEMP:  74; 6HR PCP: TRACE;

$$

ARZ004-005-016-210100-
NORTH CENTRAL ARKANSAS

CITY           SKY/WX    TMP DP  RH WIND       PRES   REMARKS
BATESVILLE     CLOUDY    67  59  75 CALM      30.08R
6HR MIN TEMP:  67; 6HR MAX TEMP:  76;

FLIPPIN        PTCLDY    66  60  81 CALM      30.07R
6HR MIN TEMP:  66; 6HR MAX TEMP:  73;

MTN HOME       CLOUDY    65  60  84 CALM      30.06S
6HR MIN TEMP:  65; 6HR MAX TEMP:  74; 6HR PCP: TRACE;

$$

ARZ040-041-210100-
WEST CENTRAL ARKANSAS

CITY           SKY/WX    TMP DP  RH WIND       PRES   REMARKS
MENA           PTCLDY    72  63  73 SE7       30.03F
$$

ARZ009-017-025-026-028-210100-
NORTHEAST ARKANSAS

CITY           SKY/WX    TMP DP  RH WIND       PRES   REMARKS
JONESBORO      CLOUDY    68  54  60 SE8       30.09S
6HR MIN TEMP:  68; 6HR MAX TEMP:  79;

NEWPORT        CLOUDY    66  54  65 SE8       30.08S
6HR MIN TEMP:  66; 6HR MAX TEMP:  78;

WALNUT RIDGE   CLOUDY    68  54  60 SE9       30.08S
6HR MIN TEMP:  68; 6HR MAX TEMP:  77;

BLYTHEVILLE    CLOUDY    67  56  67 SE6       30.11F
6HR MIN TEMP:  67; 6HR MAX TEMP:  78;

$$

ARZ022-023-033-042-044-210100-
CENTRAL ARKANSAS

CITY           SKY/WX    TMP DP  RH WIND       PRES   REMARKS
LITTLE ROCK    CLOUDY    68  62  81 SE6       30.07F
6HR MIN TEMP:  68; 6HR MAX TEMP:  75;

N LITTLE ROCK    N/A     69  60  73 S5        30.09R
6HR MIN TEMP:  70; 6HR MAX TEMP:  74;

JACKSONVILLE   CLOUDY    69  59  71 E3        30.07R
6HR MIN TEMP:  69; 6HR MAX TEMP:  76;

SEARCY         CLOUDY    66  63  90 CALM      30.08S
6HR MIN TEMP:  65; 6HR MAX TEMP:  77;

HOT SPRINGS    CLOUDY    71  61  70 SE3       30.06F
6HR MIN TEMP:  69; 6HR MAX TEMP:  74;

RUSSELLVILLE   CLOUDY    67  60  78 E3        30.05F
6HR MIN TEMP:  67; 6HR MAX TEMP:  74;

CLINTON        FAIR      64  63  94 CALM      30.08R
$$

ARZ036-210100-
EAST ARKANSAS

CITY           SKY/WX    TMP DP  RH WIND       PRES   REMARKS
WEST MEMPHIS   CLOUDY    64  57  78 SE3       30.09F
6HR MIN TEMP:  64; 6HR MAX TEMP:  76;

$$

ARZ050-053-066-070-073-210100-
SOUTHWEST ARKANSAS

CITY           SKY/WX    TMP DP  RH WIND       PRES   REMARKS
ARKADELPHIA    FAIR      66  60  81 CALM      30.06F
6HR MIN TEMP:  66; 6HR MAX TEMP:  75;

CAMDEN         PTCLDY    64  59  82 CALM      30.04F
TEXARKANA      PTCLDY    71  59  65 E5        30.01F
6HR MIN TEMP:  71; 6HR MAX TEMP:  78;

EL DORADO      CLOUDY    65  61  87 CALM      30.05F
6HR MIN TEMP:  65; 6HR MAX TEMP:  75;

DE QUEEN       CLEAR     71  62  73 E8        29.98F
6HR MIN TEMP:  70; 6HR MAX TEMP:  79;

$$

ARZ056-057-069-210100-
SOUTHEAST ARKANSAS

CITY           SKY/WX    TMP DP  RH WIND       PRES   REMARKS
PINE BLUFF     MOCLDY    66  56  70 E6        30.07F
6HR MIN TEMP:  66; 6HR MAX TEMP:  76;

STUTTGART      PTCLDY    71  57  61 S5        30.08F
6HR MIN TEMP:  70; 6HR MAX TEMP:  77;

MONTICELLO     MOCLDY    66  62  87 CALM      30.07F
6HR MIN TEMP:  66; 6HR MAX TEMP:  76;


$$






USA.gov is the U.S. government's official web portal to all federal, state and local government web resources and services.